Printer-friendly version

IAU Minor Planet Center

Minor Planet Center

MPEC 2005-S73 : 2005 SJ19

The following Minor Planet Electronic Circular may be linked-to from your own Web pages, but must not otherwise be redistributed electronically.


Read MPEC 2005-S72 Read MPEC 2005-S74


M.P.E.C. 2005-S73                                Issued 2005 Sept. 28, 15:06 UT

     The Minor Planet Electronic Circulars contain information on unusual
         minor planets and routine data on comets.  They are published
   on behalf of Commission 20 of the International Astronomical Union by the
          Minor Planet Center, Smithsonian Astrophysical Observatory,
                          Cambridge, MA 02138, U.S.A.

                  Supported in part by the Brinson Foundation
             Prepared using the Tamkin Foundation Computer Network

                              MPC@CFA.HARVARD.EDU
          URL http://cfa-www.harvard.edu/iau/mpc.html  ISSN 1523-6714

                                   2005 SJ19

Observations:
     K05S19J* C2005 09 27.36963 03 05 25.10 -13 09 13.9          19.1   ES073704
     K05S19J  C2005 09 27.38020 03 05 15.82 -13 05 30.6          19.5   ES073704
     K05S19J  C2005 09 27.39072 03 05 06.65 -13 01 48.3          19.7   ES073704
     K05S19J  C2005 09 27.40122 03 04 57.40 -12 58 04.2          19.2   ES073704
     K05S19J  C2005 09 27.41176 03 04 48.19 -12 54 21.0          19.2   ES073704
     K05S19J  C2005 09 28.01232 02 56 46.36 -09 23 13.3          19.3 R ES073J95
     K05S19J  C2005 09 28.03224 02 56 29.87 -09 16 15.0                 ES073J95
     K05S19J  C2005 09 28.03306 02 56 29.18 -09 15 58.7                 ES073J95
     K05S19J  C2005 09 28.03389 02 56 28.51 -09 15 39.8          19.6 R ES073J95
     K05S19J  C2005 09 28.34501 02 52 21.55 -07 26 51.4          20.3 R ES073734
     K05S19J  C2005 09 28.34877 02 52 18.43 -07 25 30.7          19.7 R ES073734
     K05S19J  C2005 09 28.35064 02 52 16.98 -07 24 53.4          19.7 R ES073734
     K05S19J 5C2005 09 28.35208 02 52 18.77 -07 24 13.6          19.2 R ES073673
     K05S19J  C2005 09 28.35251 02 52 15.42 -07 24 14.4          18.8 R ES073734
     K05S19J 5C2005 09 28.35382 02 52 17.33 -07 23 37.8                 ES073673
     K05S19J  C2005 09 28.35441 02 52 13.83 -07 23 35.4          19.7 R ES073734
     K05S19J  C2005 09 28.35994 02 52 09.28 -07 21 37.5          19.8 R ES073734
     K05S19J 5C2005 09 28.36736 02 52 06.15 -07 18 56.3                 ES073673
     K05S19J 5C2005 09 28.37384 02 52 00.74 -07 16 41.3                 ES073673

Observer details:
673 Table Mountain Observatory, Wrightwood.  Observer J. Young.  0.6-m f/16
    Cassegrain + CCD.
704 Lincoln Laboratory ETS, New Mexico.  Observers M. Bezpalko, L. Manguso,
    D. Torres, R. Kracke, A. Milner, H. Love.  Measurers J. Stuart, R. Sayer,
    J. Evans, J. Kommers.  1.0-m f/2.15 reflector + CCD.
734 Farpoint Observatory.  Observer G. Hug.  0.7-m reflector + CCD.
J95 Great Shefford.  Observer P. Birtwhistle.  0.40-m f/6.0 Schmidt-Cassegrain
    + CCD.

Orbital elements:
2005 SJ19
Epoch 2005 Aug. 18.0 TT = JDT 2453600.5                 MPC
M 358.55254              (2000.0)            P               Q
n   0.51775617     Peri.  311.73478     +0.78600215     +0.61554380
a   1.5359811      Node    10.71366     -0.43437681     +0.61605090
e   0.3696597      Incl.   18.01790     -0.43990614     +0.49151513
P   1.90           H   24.3           G   0.15           U   8
Residuals in seconds of arc
050927 704  0.5-  0.1-    050928 J95  0.3+  0.6-    050928 673  0.4-  0.9-
050927 704  0.7-  0.6-    050928 J95  0.5+  0.9+    050928 734  0.0   0.9-
050927 704  0.1+  1.1-    050928 734  1.2-  1.1-    050928 734  0.6+  1.9+
050927 704  0.5-  0.6+    050928 734  1.2-  1.3+    050928 673  0.1+  0.9-
050927 704  0.1-  0.3+    050928 734  0.3+  0.4-    050928 673  0.4-  0.6-
050928 J95  0.2-  0.2-    050928 673  0.4-  0.6-
050928 J95  0.4+  0.3+    050928 734  0.2+  0.3-

Ephemeris:
2005 SJ19                a,e,i = 1.54, 0.37, 18                  q = 0.9682
Date    TT    R. A. (2000) Decl.     Delta      r     Elong.  Phase     V
2005 09 27    03 10.52   -15 18.2    0.0583   1.043   133.3    44.4    19.9
2005 10 02    02 09.77   +11 24.6    0.0681   1.063   154.6    23.8    19.7
2005 10 07    01 26.54   +27 29.0    0.0917   1.084   156.3    21.7    20.3
2005 10 12    00 57.00   +35 39.2    0.122    1.107   151.5    25.5    21.1
2005 10 17    00 37.17   +39 52.8    0.156    1.131   147.3    28.4    21.8

Kyle E. Smalley              (C) Copyright 2005 MPC           M.P.E.C. 2005-S73

Read MPEC 2005-S72 Read MPEC 2005-S74


Our Web policy. Index to the CBAT/MPC/ICQ pages.


Valid HTML 4.01!